Regional Weather Roundup
Issued by NWS

Home | Current Version | Previous Version | Text Only | Print | Product List | Glossary Off
Versions: 1 2 3 4 5 6 7 8 9 10 11 12 13 14 15 16 17 18 19 20 21 22 23 24 25 26 27 28 29 30 31 32 33 34 35 36 37 38 39 40 41 42 43 44 45 46 47 48 49 50

000
ASUS45 KCYS 102110
RWRWY

WYOMING REGIONAL WEATHER ROUNDUP
NATIONAL WEATHER SERVICE CHEYENNE WY
300 PM MDT THU JUL 10 2014

NOTE:  "FAIR" INDICATES FEW OR NO CLOUDS BELOW 12,000 FEET
WITH NO SIGNIFICANT WEATHER AND/OR OBSTRUCTIONS TO VISIBILITY.

WYZ001-102200-
YELLOWSTONE NATIONAL PARK

CITY           SKY/WX    TMP DP  RH WIND       PRES   REMARKS
LK YELLOWSTONE   N/A     58  54  86 MISG      30.24R
W YELLOWSTONE  NOT AVBL

$$
WYZ002>013-054>058-071-098>099-102200-
NORTHERN WYOMING

CITY           SKY/WX    TMP DP  RH WIND       PRES   REMARKS
JACKSON        NOT AVBL
CODY           PTSUNNY   82  52  34 S17       29.97F
GREYBULL       MOSUNNY   85  48  27 NE3       29.90F
WORLAND        CLOUDY    86  51  29 N7        29.93F
SHERIDAN       PTSUNNY   84  48  28 CALM      29.92F
BUFFALO        PTSUNNY   78  54  43 NW7       30.00F
GILLETTE       CLOUDY    83  54  36 NW8       29.95S
HULETT         FAIR      81  61  50 MISG      29.94
NEWCASTLE      FAIR      86  54  32 MISG      29.93

$$
WYZ014>020-022>026-101>103-102200-
CENTRAL WYOMING

CITY           SKY/WX    TMP DP  RH WIND       PRES   REMARKS
BIG PINEY      CLOUDY    77  46  33 N20G28    30.18F
PINEDALE       CLOUDY    72  46  40 NW18G25   30.21S
DUBOIS         CLOUDY    63  50  63 W9        30.19F
LANDER         PTSUNNY   84  47  27 NE6       30.01S
RIVERTON       PTSUNNY   83  45  26 NE14G22   30.02F
CASPER         PTSUNNY   81  55  40 NE13      30.00S THUNDER
DOUGLAS        PTSUNNY   91  50  24 NE9G17    29.95F

$$
WYZ021-027>030-104>119-102200-
SOUTHERN WYOMING

CITY           SKY/WX    TMP DP  RH WIND       PRES   REMARKS
EVANSTON       PTSUNNY   79  51  37 W15G21    30.16F
KEMMERER       PTCLDY    75  48  38 W13G21    30.18F
FORT BRIDGER   CLOUDY    78  49  35 W9        30.19S
ROCK SPRINGS   MOSUNNY   83  44  25 W15G23    30.12F
DIXON          FAIR      88  43  20 SW12      30.13F
RAWLINS        LGT RAIN  76  47  35 SW17G24   30.13R
SARATOGA       FAIR      84  41  21 W17G28    30.14F
LARAMIE        PTSUNNY   82  43  25 VRB3      30.14F
CHEYENNE       PTSUNNY   81  46  29 W14       30.07S
TORRINGTON     MOSUNNY   97  49  19 N7        29.86F HX  94

$$



USA.gov is the U.S. government's official web portal to all federal, state and local government web resources and services.